Tracking 28793 objects as of 20-Apr-2024
HD Live streaming from Space Station
objects crossing your sky now

NAVSTAR 79 (USA 304)

Track NAVSTAR 79 (USA 304) now!
NAVSTAR 79 (USA 304) is classified as:


NORAD ID: 45854
Int'l Code: 2020-041A
Perigee: 20,080.4 km
Apogee: 20,299.1 km
Inclination: 56.1 °
Period: 718.0 minutes
Semi major axis: 26560 km
RCS: Unknown
Launch date: June 30, 2020
Source: United States (US)
Launch site: AIR FORCE EASTERN TEST RANGE (AFETR)
PRN: 23
Your satellite tracking list
Your tracking list is empty




NASA's NSSDC Master Catalog

Two Line Element Set (TLE):
1 45854U 20041A   24111.47564038 -.00000051  00000-0  00000-0 0  9996
2 45854  56.0784  59.6940 0041168 193.8174 162.9300  2.00559647 28238
Source of the keplerian elements: AFSPC